Regional Weather Roundup
Issued by NWS

Home | Current Version | Previous Version | Text Only | Print | Product List | Glossary On
Versions: 1 2 3 4 5 6 7 8 9 10 11 12 13 14 15 16 17 18 19 20 21 22 23 24 25 26 27 28 29 30 31 32 33 34 35 36 37 38 39 40 41 42 43 44 45 46 47 48 49 50
553
ASUS43 KMPX 081910
RWRMN
WEATHER ROUNDUP FOR MINNESOTA
NATIONAL WEATHER SERVICE TWIN CITIES/CHANHASSEN MN
100 PM CST MON FEB 08 2016


NOTE: "FAIR" INDICATES FEW OR NO CLOUDS BELOW 12,000 FEET WITH NO
SIGNIFICANT WEATHER AND/OR OBSTRUCTIONS TO VISIBILITY. N/A MEANS
CURRENT SKY AND/OR WEATHER CONDITIONS ARE NOT AVAILABLE.

MNZ060>063-068>070-082000-
   Twin Cities Metro

CITY           SKY/WX    TMP DP  RH WIND       PRES   REMARKS
TWIN CITIES    PTSUNNY   16   5  62 NW17      29.93F WCI   0
ST PAUL        CLOUDY    15   5  64 NW17G26   29.94F WCI  -1
CRYSTAL        CLOUDY    15   4  61 NW16G28   29.93F WCI  -1
BLAINE         PTSUNNY   18   7  62 NW20G26   29.92F WCI   1
LAKEVILLE      PTSUNNY   12   7  79 NW23      29.91F WCI  -7
EDEN PRAIRIE   CLOUDY    16   5  62 NW18G29   29.93F WCI   0
SOUTH ST PAUL  CLOUDY    16   4  60 NW10G20   29.92F WCI   4
LAKE ELMO      PTSUNNY   16   5  62 NW15G22   29.91F WCI   1
$$
MNZ001>005-007-008-013>017-022>024-027-028-082000-
   Northwest Minnesota

CITY           SKY/WX    TMP DP  RH WIND       PRES   REMARKS
BEMIDJI        LGT SNOW   8   2  76 NW17      30.01S WCI -10
HALLOCK        CLOUDY    12   7  79 NW23G32   30.19S HAZE    WCI  -7
ROSEAU         CLOUDY    10   3  72 NW24G32   30.09F HAZE    WCI -10
WARROAD        LGT SNOW   9   1  72 NW15G24   30.08F WCI  -8
CROOKSTON      SNOW      12   9  85 N29G36    30.18S VSB 1/4 WCI  -9
FOSSTON        LGT SNOW   9   3  78 NW26      30.09S VSB 1   WCI -13
DETROIT LAKES  CLOUDY    12   9  85 NW26G43   30.07F HAZE    WCI  -8
MOORHEAD         N/A     12   9  85 N23       30.16F WCI  -7
PARK RAPIDS    LGT SNOW  11   2  67 NW24G31   29.99S WCI  -9
MAHNOMEN       CLOUDY    10   4  78 NW24      30.09S WCI -11
$$
MNZ006-009>011-018-025>026-082000-
   North Central Minnesota

CITY           SKY/WX    TMP DP  RH WIND       PRES   REMARKS
BAUDETTE       LGT SNOW   4  -3  73 NW17      30.03S WCI -16
FLAG ISLAND    CLOUDY     3  -2  78 NW23G29   30.07S HAZE    WCI -19
INTL FALLS     CLOUDY     6  -2  69 NW16      29.97S HAZE    WCI -12
WASKISH        FLURRIES   9   1  72 NW15G21   30.03R WCI  -8
LONGVILLE      LGT SNOW   9   1  72 NW12G23   29.97S WCI  -6
GRAND RAPIDS   CLOUDY     9   0  66 NW22G31   29.92S WCI -11
CRANE LAKE     CLOUDY     7   0  72 NW14G20   29.94S WCI -10
ORR            CLOUDY     7  -2  66 NW7       29.89S WCI  -5
COOK           LGT SNOW   9   1  72 NW12G20   29.90S WCI  -6
WALKER         LGT SNOW  10   2  72 NW18G26   29.98S WCI  -9
$$
MNZ012-019>021-037-082000-
   Northeast Minnesota

CITY           SKY/WX    TMP DP  RH WIND       PRES   REMARKS
DULUTH         FLURRIES   9   0  67 NW18G26   29.82F WCI -10
ELY            LGT SNOW   9   3  78 NW12G17   29.84S WCI  -6
HIBBING        CLOUDY     6   0  76 NW21      29.89S BLWGSNOWWCI -14
EVELETH        LGT SNOW  10   3  72 NW17G23   29.88S WCI  -7
DULUTH HARBOR  LGT SNOW  14   7  73 NW16      29.91S WCI  -2
TWO HARBORS    PTSUNNY   16   5  62 NW7G21    29.81F WCI   6
SILVER BAY     FLURRIES  16   3  57 NW9G18    29.80S WCI   4
GRAND MARAIS     N/A     12   2  64 VRB6G16   29.82F WCI   3
G MARAIS ARPRT LGT SNOW   5  -4  66 NW14G25   29.69F WCI -12
$$
MNZ029>031-032-039>041-046>048-054>057-064-082000-
   West Central Minnesota

CITY           SKY/WX    TMP DP  RH WIND       PRES   REMARKS
FERGUS FALLS   LGT SNOW  12   7  79 N23G43    30.12F WCI  -7
WHEATON        LGT SNOW  19  12  73 NW26G32   30.14F VSB 3/4 WCI   1
MORRIS         LGT SNOW  16   9  73 N30G40    30.07S WCI  -4
ALEXANDRIA     LGT SNOW  12   5  73 NW24G38   30.01S WCI  -8
ELBOW LAKE     CLOUDY    13   7  76 NW23G32   30.09S WCI  -6
WADENA         LGT SNOW  10   3  72 NW18G28   30.01R WCI  -8
GLENWOOD       CLOUDY    12   7  79 NW23      30.01S WCI  -7
APPLETON       SNOW      18  10  73 N35G44    30.09F VSB 1/2 WCI  -3
BENSON         FLURRIES  16   7  67 N30G39    30.06S WCI  -4
ORTONVILLE     LGT SNOW  18   9  68 N23G35    30.11F WCI   0
MADISON        LGT SNOW  19  10  68 N26G39    30.11F WCI   1
WILLMAR        CLOUDY    16   9  73 NW30G39   30.03S WCI  -4
$$
MNZ033>034-036-042>043-049>051-058-059-082000-
   Central Minnesota

CITY           SKY/WX    TMP DP  RH WIND       PRES   REMARKS
ST CLOUD       CLOUDY    13   3  64 NW21G30   29.96S WCI  -5
SAUK CENTRE    LGT SNOW  12   6  75 NW25G33   30.00S WCI  -8
PAYNESVILLE    CLOUDY    13   6  72 NW20G31   30.00F WCI  -5
AITKIN         MIX PCPN  14   0  52 NW12G18   29.92F WCI   0
PINE RIVER     FLURRIES  10   3  72 NW12G20   30.00S WCI  -4
BRAINERD       LGT SNOW  11   4  73 NW22G30   29.96F WCI  -8
STAPLES        FLURRIES  10   3  72 NW20G26   29.99S WCI  -8
LONG PRAIRIE   CLOUDY    12   5  73 NW22G31   29.99S HAZE    WCI  -7
LITTLE FALLS   CLOUDY    14   3  62 NW12G18   29.98S WCI   0
LITCHFIELD     CLOUDY    16   9  73 NW23G32   29.98F WCI  -2
BUFFALO        CLOUDY    15   6  68 NW15G23   29.97F HAZE    WCI   0
MAPLE LAKE     CLOUDY    15   7  68 NW16G24   29.97F WCI   0
$$
MNZ037-044-045-052-053-082000-
   East Central Minnesota

CITY           SKY/WX    TMP DP  RH WIND       PRES   REMARKS
PRINCETON      CLOUDY    16   5  62 NW14G26   29.94F WCI   1
MORA           CLOUDY    14   3  62 NW21G26   29.93F WCI  -4
CAMBRIDGE      MOSUNNY   16   3  57 NW12G17   29.91F WCI   3
RUSH CITY      CLOUDY    14   3  61 NW9G17    29.92F WCI   2
MOOSE LAKE     CLOUDY    14   1  57 N13G23    29.89S WCI   0
HINCKLEY       MOCLDY    16   5  62 NW12G17   29.90F WCI   3
CLOQUET        CLOUDY    10   1  67 NW21G28   29.85F WCI  -9
MCGREGOR       PTSUNNY   12   3  67 NW16      29.92F WCI  -4
$$
MNZ071>073-080-081-089-090-097-098-082000-
   Southwest Minnesota

CITY           SKY/WX    TMP DP  RH WIND       PRES   REMARKS
MONTEVIDEO     CLOUDY    18  12  79 N31G43    30.09S FOG     WCI  -2
GRANITE FALLS  CLOUDY    18  10  69 NW24G39   30.09S WCI   1
CANBY          CLOUDY    21  14  73 NW30G38   30.11F HAZE    WCI   3
MARSHALL       LGT SNOW  16   9  73 N33G39    30.05F WCI  -5
REDWOOD FALLS  FLURRIES  16   7  67 NW21G35   30.03F WCI  -1
OLIVIA         LGT SNOW  18  10  73 NW25G33   30.02S WCI  -1
PIPESTONE      SUNNY     21  10  63 N17G30    30.05F WCI   7
WINDOM         SNOW      14   9  79 NW32G41   29.99F VSB 1/4 WCI  -7
WORTHINGTON    PTSUNNY  N/A N/A N/A NW33G41   30.03F
JACKSON        CLOUDY    14   9  79 NW40G51   29.97F WCI  -9
TRACY          LGT SNOW  17  11  80 N22G38    30.06S WCI  -1
SLAYTON        CLOUDY    14  12  92 NW21G32   30.04S WCI  -4
$$
MNZ065>067-074>077-082>085-091>093-082000-
   South Central Minnesota

CITY           SKY/WX    TMP DP  RH WIND       PRES   REMARKS
MANKATO        PTSUNNY  N/A N/A N/A NW25G32   29.94F
NEW ULM        LGT SNOW  14   7  73 NW30G40   29.96F WCI  -7
ST JAMES       CLOUDY    16  10  79 NW29G35   29.99F HAZE    WCI  -4
FAIRMONT       CLOUDY   N/A N/A N/A NW29G36   29.94F
GLENCOE        CLOUDY    16   9  71 NW22G28   29.96F WCI  -1
FARIBAULT      CLOUDY    16   7  67 NW20G25   29.93S WCI  -1
OWATONNA       LGT SNOW  14   7  73 NW21G29   29.91S WCI  -4
WASECA         CLOUDY    14   9  79 NW22      29.94F HAZE    WCI  -4
ALBERT LEA       N/A     12   9  85 NW14G28   29.90S WCI  -3
$$
MNZ078>079-086>088-094>096-082000-
   Southeast Minnesota

CITY           SKY/WX    TMP DP  RH WIND       PRES   REMARKS
ROCHESTER      CLOUDY    13   5  70 N23       29.85S BLWGSNOWWCI  -6
RED WING       CLOUDY    16   1  53 N13G23    29.90F WCI   2
STANTON        CLOUDY    16   6  65 NW17      29.91S WCI   0
DODGE CENTER   CLOUDY    12   7  79 NW17G26   29.86F HAZE    WCI  -5
WINONA         CLOUDY    18   9  68 NW21G26   29.88S WCI   1
AUSTIN         LGT SNOW  12   7  79 NW20G28   29.87F WCI  -6
PRESTON        FLURRIES  13   6  70 N18G25    29.84S WCI  -4
$$
ABBREVIATIONS USED IN REMARKS
   TC - TEMPERATURES IN CELSIUS
  WCI - WIND CHILL INDEX
   HX - HEAT INDEX
  VSB - VISIBILITY
$$




USA.gov is the U.S. government's official web portal to all federal, state and local government web resources and services.